When you browse on this site, cookies collect data to enhance your experience and personalize the content and advertising you see.
Visit our Privacy Policy to learn more. By continuing to use the site, you agree to this use of cookies and data.
  • In Romania
  • List of Countries
  • For 7 days
  • Water Temperature
  • Weather Map
  • Weather Widgets
  • user-avatar
    Login

    Hourly Weather Igls

    Today, 19 September, Thursday

    Time Temperature Precipitation Wind Pressure Humidity
    00:00 +10°C° 0 mm 1 mps 688 mmHg 92%
    01:00 +10°C° 0 mm 1 mps 688 mmHg 92%
    02:00 +9°C° 0 mm 1 mps 688 mmHg 92%
    03:00 +8°C° 0 mm 1 mps 687 mmHg 92%
    04:00 +8°C° 0 mm 1 mps 687 mmHg 93%
    05:00 +8°C° 0 mm 1 mps 687 mmHg 91%
    06:00 +9°C° 0 mm 1 mps 688 mmHg 89%
    07:00 +9°C° 0 mm 1 mps 688 mmHg 86%
    08:00 +11°C° 0 mm 1 mps 688 mmHg 78%
    09:00 +12°C° 0 mm 1 mps 689 mmHg 69%
    10:00 +14°C° 0 mm 2 mps 689 mmHg 60%
    11:00 +15°C° 0 mm 2 mps 689 mmHg 56%
    12:00 +16°C° 0 mm 2 mps 689 mmHg 51%
    13:00 +17°C° 0 mm 2 mps 690 mmHg 47%
    14:00 +17°C° 0 mm 2 mps 689 mmHg 49%
    15:00 +17°C° 0 mm 2 mps 689 mmHg 51%
    16:00 +16°C° 0 mm 2 mps 689 mmHg 54%
    17:00 +13°C° 0 mm 2 mps 689 mmHg 66%
    18:00 +11°C° 0 mm 1 mps 689 mmHg 79%
    19:00 +8°C° 0 mm 1 mps 689 mmHg 91%
    20:00 +8°C° 0 mm 1 mps 689 mmHg 91%
    21:00 +7°C° 0 mm 1 mps 689 mmHg 91%
    22:00 +6°C° 0 mm 0 mps 690 mmHg 91%
    23:00 +6°C° 0 mm 0 mps 690 mmHg 90%

    Tomorrow, 20 September, Friday

    Time Temperature Precipitation Wind Pressure Humidity
    00:00 +7°C° 0 mm 1 mps 690 mmHg 88%
    01:00 +7°C° 0 mm 1 mps 690 mmHg 87%
    02:00 +6°C° 0 mm 0 mps 689 mmHg 85%
    03:00 +6°C° 0 mm 0 mps 689 mmHg 83%
    04:00 +6°C° 0 mm 0 mps 689 mmHg 82%
    05:00 +7°C° 0 mm 0 mps 689 mmHg 78%
    06:00 +8°C° 0 mm 0 mps 689 mmHg 74%
    07:00 +9°C° 0 mm 0 mps 690 mmHg 71%
    08:00 +11°C° 0 mm 0 mps 690 mmHg 60%
    09:00 +15°C° 0 mm 1 mps 691 mmHg 49%
    10:00 +19°C° 0 mm 1 mps 691 mmHg 38%
    11:00 +20°C° 0 mm 1 mps 691 mmHg 36%
    12:00 +21°C° 0 mm 1 mps 691 mmHg 34%
    13:00 +21°C° 0 mm 2 mps 690 mmHg 32%
    14:00 +21°C° 0 mm 1 mps 690 mmHg 36%
    15:00 +21°C° 0 mm 1 mps 690 mmHg 41%
    16:00 +20°C° 0 mm 1 mps 689 mmHg 45%
    17:00 +16°C° 0 mm 1 mps 689 mmHg 57%
    18:00 +14°C° 0 mm 1 mps 689 mmHg 70%
    19:00 +11°C° 0 mm 1 mps 688 mmHg 82%
    20:00 +11°C° 0 mm 1 mps 688 mmHg 82%
    21:00 +11°C° 0 mm 1 mps 689 mmHg 82%
    22:00 +11°C° 0 mm 1 mps 689 mmHg 82%
    23:00 +11°C° 0 mm 1 mps 689 mmHg 83%

    Day after tomorrow, 21 September, Saturday

    Time Temperature Precipitation Wind Pressure Humidity
    00:00 +10°C° 0 mm 2 mps 689 mmHg 83%
    01:00 +10°C° 0 mm 2 mps 688 mmHg 83%
    02:00 +10°C° 0 mm 2 mps 688 mmHg 84%
    03:00 +10°C° 0 mm 2 mps 688 mmHg 85%
    04:00 +10°C° 0 mm 2 mps 688 mmHg 86%
    05:00 +10°C° 0 mm 2 mps 688 mmHg 84%
    06:00 +12°C° 0 mm 2 mps 688 mmHg 82%
    07:00 +12°C° 0 mm 1 mps 687 mmHg 80%
    08:00 +15°C° 0 mm 1 mps 688 mmHg 70%
    09:00 +19°C° 0 mm 1 mps 688 mmHg 61%
    10:00 +22°C° 0 mm 1 mps 689 mmHg 51%
    11:00 +23°C° 0 mm 1 mps 689 mmHg 49%
    12:00 +24°C° 0 mm 1 mps 689 mmHg 46%
    13:00 +25°C° 0 mm 1 mps 688 mmHg 43%
    14:00 +25°C° 0 mm 2 mps 688 mmHg 46%
    15:00 +24°C° 0 mm 2 mps 687 mmHg 49%
    16:00 +23°C° 0 mm 2 mps 687 mmHg 52%
    17:00 +20°C° 0 mm 2 mps 687 mmHg 61%
    18:00 +17°C° 0 mm 2 mps 686 mmHg 70%
    19:00 +14°C° 0 mm 2 mps 686 mmHg 80%
    20:00 +13°C° 0 mm 3 mps 686 mmHg 81%
    21:00 +13°C° 0 mm 3 mps 686 mmHg 82%
    22:00 +12°C° 0 mm 3 mps 686 mmHg 83%
    23:00 +12°C° 0 mm 3 mps 685 mmHg 84%

    22 September, Sunday

    Time Temperature Precipitation Wind Pressure Humidity
    00:00 +12°C° 0 mm 3 mps 685 mmHg 84%
    01:00 +12°C° 0 mm 3 mps 685 mmHg 85%
    02:00 +12°C° 0 mm 3 mps 685 mmHg 85%
    03:00 +12°C° 0 mm 3 mps 684 mmHg 85%
    04:00 +11°C° 0 mm 3 mps 684 mmHg 84%
    05:00 +13°C° 0 mm 2 mps 684 mmHg 83%
    06:00 +13°C° 0 mm 2 mps 684 mmHg 82%
    07:00 +13°C° 0 mm 2 mps 684 mmHg 81%
    08:00 +16°C° 0 mm 2 mps 685 mmHg 74%
    09:00 +19°C° 0 mm 2 mps 685 mmHg 66%
    10:00 +22°C° 0 mm 1 mps 686 mmHg 58%
    11:00 +23°C° 0 mm 1 mps 685 mmHg 57%
    12:00 +24°C° 0 mm 1 mps 685 mmHg 56%
    13:00 +24°C° 0 mm 2 mps 685 mmHg 56%
    14:00 +23°C° 0.4 mm 1 mps 685 mmHg 63%
    15:00 +22°C° 0.4 mm 1 mps 684 mmHg 70%
    16:00 +21°C° 0.4 mm 1 mps 684 mmHg 77%
    17:00 +19°C° 0.2 mm 2 mps 683 mmHg 82%
    18:00 +17°C° 0.2 mm 2 mps 683 mmHg 86%
    19:00 +16°C° 0.2 mm 2 mps 683 mmHg 91%
    20:00 +16°C° 0 mm 2 mps 683 mmHg 92%
    21:00 +15°C° 0 mm 2 mps 683 mmHg 92%
    22:00 +15°C° 0 mm 2 mps 683 mmHg 93%
    23:00 +15°C° 0 mm 2 mps 683 mmHg 92%

    23 September, Monday

    Time Temperature Precipitation Wind Pressure Humidity
    00:00 +15°C° 0 mm 2 mps 683 mmHg 92%
    01:00 +15°C° 0 mm 1 mps 683 mmHg 92%
    02:00 +15°C° 0.9 mm 1 mps 684 mmHg 94%
    03:00 +15°C° 0.9 mm 1 mps 684 mmHg 96%
    04:00 +15°C° 0.9 mm 1 mps 684 mmHg 97%
    05:00 +14°C° 1.7 mm 1 mps 684 mmHg 97%
    06:00 +14°C° 1.7 mm 2 mps 684 mmHg 98%
    07:00 +14°C° 1.7 mm 2 mps 684 mmHg 98%
    08:00 +14°C° 0.7 mm 2 mps 685 mmHg 97%
    09:00 +13°C° 0.7 mm 2 mps 685 mmHg 97%
    10:00 +13°C° 0.7 mm 2 mps 685 mmHg 96%
    11:00 +13°C° 0.1 mm 1 mps 685 mmHg 93%
    12:00 +14°C° 0.1 mm 1 mps 685 mmHg 90%
    13:00 +14°C° 0.1 mm 1 mps 685 mmHg 87%
    14:00 +15°C° 0 mm 1 mps 685 mmHg 85%
    15:00 +15°C° 0 mm 1 mps 685 mmHg 82%
    16:00 +15°C° 0 mm 1 mps 685 mmHg 79%
    17:00 +14°C° 0 mm 1 mps 685 mmHg 84%
    18:00 +13°C° 0 mm 1 mps 685 mmHg 88%
    19:00 +12°C° 0 mm 1 mps 685 mmHg 93%
    20:00 +11°C° 0 mm 1 mps 685 mmHg 93%
    21:00 +11°C° 0 mm 1 mps 686 mmHg 93%
    22:00 +10°C° 0 mm 1 mps 686 mmHg 94%
    23:00 +10°C° 0 mm 1 mps 686 mmHg 93%

    24 September, Tuesday

    Time Temperature Precipitation Wind Pressure Humidity
    00:00 +10°C° 0 mm 1 mps 686 mmHg 91%
    01:00 +10°C° 0 mm 1 mps 686 mmHg 90%
    02:00 +10°C° 0 mm 1 mps 686 mmHg 89%
    03:00 +9°C° 0 mm 1 mps 685 mmHg 88%
    04:00 +9°C° 0 mm 1 mps 685 mmHg 86%
    05:00 +10°C° 0 mm 1 mps 685 mmHg 83%
    06:00 +11°C° 0 mm 1 mps 686 mmHg 80%
    07:00 +11°C° 0 mm 1 mps 686 mmHg 77%
    08:00 +13°C° 0 mm 1 mps 686 mmHg 71%
    09:00 +14°C° 0 mm 1 mps 686 mmHg 65%
    10:00 +15°C° 0 mm 0 mps 686 mmHg 60%
    11:00 +16°C° 0 mm 0 mps 686 mmHg 55%
    12:00 +17°C° 0 mm 0 mps 686 mmHg 51%
    13:00 +18°C° 0 mm 0 mps 686 mmHg 47%
    14:00 +17°C° 0 mm 0 mps 686 mmHg 52%
    15:00 +17°C° 0 mm 0 mps 686 mmHg 57%
    16:00 +16°C° 0 mm 0 mps 685 mmHg 62%
    17:00 +16°C° 0.1 mm 1 mps 685 mmHg 66%
    18:00 +15°C° 0.1 mm 1 mps 685 mmHg 70%
    19:00 +15°C° 0.1 mm 1 mps 685 mmHg 75%
    20:00 +15°C° 0 mm 1 mps 685 mmHg 75%
    21:00 +15°C° 0 mm 1 mps 685 mmHg 75%
    22:00 +15°C° 0 mm 1 mps 685 mmHg 76%
    23:00 +15°C° 0 mm 1 mps 685 mmHg 76%
    Show more